Theta_e
333 327 323 320 307 306 301 301 306 306 306 310 314 311 308 314 312 309 329 328 335 338 342 345 347 349 349 348 346 344 343 340 339 340 340 340 341 343 341 341 344 342 339 338 337 338 338 337 336
330 328 321 316 305 300 299 305 305 308 311 313 313 312 310 313 323 325 326 329 336 339 341 344 345 347 348 347 346 344 343 343 339 339 338 339 340 341 342 341 343 342 338 337 337 337 336 335 335
331 327 313 311 306 299 300 305 308 311 313 313 312 313 313 316 323 326 332 328 335 337 341 343 345 347 348 347 345 343 343 342 341 339 338 338 338 341 342 342 343 342 339 336 336 335 335 334 333
325 321 316 305 304 304 305 307 311 310 311 314 311 311 320 326 323 330 332 329 333 338 341 342 346 348 347 346 345 343 343 342 341 338 337 337 337 342 344 343 341 340 337 335 335 334 334 333 332
325 318 307 305 305 306 307 310 312 310 310 310 311 307 316 325 330 332 329 329 331 338 341 343 344 346 346 346 345 343 342 342 340 337 336 336 336 338 342 342 341 337 336 335 334 334 334 334 332
316 316 305 303 305 308 308 309 310 310 311 310 308 307 317 327 328 329 329 327 333 337 339 341 338 341 343 344 345 343 342 341 340 339 337 334 335 336 339 342 340 338 335 334 333 333 333 333 332
314 311 306 306 307 307 310 310 308 309 309 310 312 306 318 323 328 329 328 326 329 337 337 339 340 339 337 340 341 342 342 340 339 338 337 334 333 333 335 336 338 337 335 334 333 332 332 332 331
315 312 306 306 305 306 310 310 312 310 310 315 316 308 311 323 329 328 327 324 324 330 335 337 339 340 339 337 334 337 339 337 337 335 333 330 330 330 332 331 334 335 333 333 333 332 332 331 330
320 306 303 306 307 308 311 309 311 313 310 312 316 318 324 329 329 325 321 321 322 327 329 334 336 338 338 337 333 331 333 333 331 330 327 325 327 326 326 328 332 333 334 335 333 332 331 330 328
308 304 306 311 311 309 310 310 309 307 309 310 315 321 327 327 325 321 318 317 319 324 325 329 335 335 336 337 334 331 332 332 331 330 327 328 326 327 327 325 328 331 330 333 334 332 330 325 321
306 301 308 311 312 311 310 307 309 306 307 309 311 318 323 324 324 322 320 319 318 324 325 327 332 333 333 333 333 332 329 329 331 329 329 328 326 323 323 322 324 324 322 326 329 327 322 321 320
301 305 306 310 313 311 308 311 307 307 308 312 312 320 321 322 323 322 321 321 320 322 324 326 328 331 332 332 330 329 329 327 330 328 329 327 324 323 322 321 322 324 322 321 323 323 321 321 322
302 305 307 308 311 311 313 309 309 310 313 313 313 313 318 321 322 324 324 324 323 321 325 325 326 326 328 327 326 326 325 327 326 328 328 328 325 322 321 322 321 322 323 322 321 321 320 320 320
307 308 306 307 309 310 309 309 311 311 315 315 316 312 312 316 320 321 323 323 323 323 322 326 326 325 326 327 324 324 325 325 326 326 328 328 326 323 321 320 319 320 319 320 321 319 318 318 318
309 304 305 304 306 307 309 303 305 312 314 314 315 316 317 316 317 317 321 323 324 325 323 324 326 326 324 325 326 325 325 326 325 325 326 328 326 324 321 319 318 318 319 319 319 319 318 317 318
303 301 293 301 304 307 306 295 303 306 308 308 311 312 316 317 317 318 319 322 325 326 325 325 327 326 325 325 326 325 325 325 325 325 326 326 327 324 321 320 318 318 318 318 318 318 316 316 316
298 291 294 297 303 304 304 297 305 307 304 302 304 308 311 313 316 319 320 320 323 326 326 326 327 326 326 325 326 325 324 325 325 326 325 326 326 325 322 320 319 318 317 317 318 318 316 314 314
290 292 294 293 299 301 299 299 304 307 306 304 305 306 308 310 313 317 319 321 322 324 327 328 328 327 327 327 325 325 325 325 325 325 325 325 326 324 322 321 319 319 317 316 318 316 317 315 315
295 293 292 295 300 298 297 297 300 303 303 303 305 306 306 307 311 313 315 316 321 322 324 326 327 328 327 326 324 322 322 323 324 325 326 325 325 325 323 321 319 319 317 317 317 318 315 315 315
295 293 292 294 297 295 295 294 298 299 299 300 302 304 305 306 308 310 312 314 315 316 322 324 325 327 329 328 327 325 323 323 324 325 325 326 325 325 324 322 321 319 318 316 316 317 316 315 315
294 292 292 291 294 295 292 290 293 297 299 300 302 303 304 305 304 306 308 309 311 313 314 320 324 325 328 329 329 327 326 323 322 323 324 325 325 325 324 323 322 321 321 318 317 317 317 315 316
290 295 295 293 290 283 289 279 288 292 294 296 297 298 300 302 304 304 305 304 305 307 311 314 319 323 326 328 328 326 325 322 324 324 325 325 326 325 325 324 323 323 323 321 319 319 319 317 314
292 296 293 292 289 286 286 281 285 291 290 293 295 296 297 299 300 299 301 305 304 308 310 311 314 315 321 325 327 327 326 326 326 326 324 324 325 325 325 324 323 323 323 323 321 320 320 319 317
296 293 291 290 287 277 284 283 281 286 290 292 294 294 297 296 297 300 302 303 304 307 309 313 313 313 315 319 324 326 325 326 326 325 324 324 324 324 324 324 324 323 323 323 322 321 321 320 319
294 288 276 274 275 274 285 283 284 290 292 291 293 295 298 299 298 299 299 302 303 306 307 310 311 312 312 312 314 322 325 326 325 325 325 324 324 323 323 324 323 323 323 323 323 322 321 321 319
290 288 279 271 274 276 283 278 284 292 294 294 296 296 300 297 299 298 298 301 302 303 303 305 308 308 310 311 311 313 319 325 326 327 326 326 325 325 325 324 324 324 323 322 322 322 322 321 320
289 285 290 281 276 275 280 284 289 293 292 295 296 297 298 296 296 296 298 299 300 300 302 303 304 305 307 309 310 310 312 314 322 325 327 326 326 326 326 325 324 323 323 322 322 321 320 321 320
290 293 283 283 269 268 276 277 280 287 290 293 293 294 294 294 295 297 297 298 299 301 302 303 303 304 305 305 305 307 308 311 313 317 321 324 326 326 326 326 325 323 323 323 321 320 321 320 320
287 285 287 286 282 275 273 276 286 288 291 292 292 294 293 292 294 295 297 299 300 300 301 301 302 303 303 304 305 305 306 308 309 311 314 319 323 325 325 326 326 324 322 322 321 320 320 320 320
290 287 287 280 278 281 280 279 291 292 292 293 292 293 293 294 294 295 296 297 297 298 299 300 302 302 304 305 305 305 304 304 305 306 309 312 317 322 324 325 325 325 324 323 321 320 320 320 320
Wind_Speed
18 16 7 3 2 2 6 4 6 4 6 4 7 5 5 11 6 4 5 9 11 14 12 10 11 14 14 14 14 13 12 13 13 12 11 13 14 13 16 13 11 15 16 16 15 16 17 16 16
10 16 3 4 3 4 4 6 8 9 8 6 5 4 1 6 8 8 7 9 9 15 11 11 11 13 14 14 13 13 12 11 13 13 12 11 13 10 16 14 13 16 15 16 15 15 16 15 14
15 11 2 3 3 6 5 6 10 8 6 5 5 3 5 5 10 9 12 11 9 13 11 12 12 12 13 13 13 12 12 12 12 12 12 11 11 8 15 13 11 15 15 14 14 15 15 14 14
6 4 3 2 2 5 8 7 11 8 3 3 3 9 6 5 4 9 10 11 9 14 12 12 12 13 13 13 14 13 11 12 10 12 11 11 10 11 13 14 14 15 13 13 14 14 14 13 11
5 4 4 3 5 6 7 6 9 7 7 7 3 5 6 4 10 12 9 9 9 13 11 10 11 11 11 12 13 12 12 12 12 11 10 10 10 8 13 11 15 14 12 12 12 13 12 12 9
4 2 5 4 6 7 4 4 4 6 6 5 4 3 5 9 8 9 9 9 9 13 10 10 9 10 11 11 12 12 11 12 12 10 10 10 9 7 9 11 13 14 11 11 12 12 12 11 7
5 4 8 9 3 4 5 2 4 6 7 6 3 2 6 8 9 8 8 9 8 13 11 11 8 8 9 10 10 11 11 12 14 12 9 9 9 8 7 8 10 11 12 11 10 11 11 11 7
3 3 7 5 5 2 6 4 5 3 4 3 4 3 6 10 10 8 7 8 8 8 10 11 11 10 8 6 8 8 11 11 13 14 10 6 8 10 5 6 7 8 9 10 11 10 10 9 8
3 3 5 7 4 2 8 4 2 3 2 2 4 7 10 14 10 7 6 7 6 7 7 10 10 11 10 9 7 6 9 10 10 11 12 7 4 5 6 7 7 9 6 9 9 10 9 8 6
4 4 7 6 9 6 4 4 8 2 5 5 7 6 12 12 8 9 7 7 7 8 8 7 11 9 8 8 10 7 6 5 5 6 7 5 6 6 7 7 8 11 9 7 10 9 9 8 4
5 5 9 4 6 8 8 1 2 3 6 0 7 14 11 9 9 10 9 8 9 7 6 8 10 10 12 8 7 5 4 4 5 7 7 6 4 4 4 3 3 4 6 4 5 5 4 6 4
6 9 6 6 7 4 4 8 1 6 5 7 8 11 10 10 10 9 9 9 11 10 8 8 8 9 10 6 7 6 6 5 6 5 7 5 3 5 4 3 4 4 4 5 5 4 6 6 2
8 7 10 3 4 3 7 6 8 8 9 6 8 3 9 10 10 10 9 9 9 13 14 9 8 8 7 6 4 5 5 7 6 9 9 7 5 5 4 5 5 5 5 5 5 5 5 4 4
6 7 11 6 6 4 9 9 7 7 9 10 9 9 9 9 11 9 9 9 10 9 13 14 10 8 7 7 6 5 5 5 5 5 9 10 6 5 5 5 5 5 5 4 4 5 5 5 4
6 7 8 7 4 6 5 11 12 13 11 10 8 7 7 9 9 10 11 10 10 8 9 14 13 10 10 9 8 6 5 6 6 5 7 11 8 8 7 5 5 5 5 7 5 5 4 5 4
2 5 3 6 10 6 7 9 9 10 14 16 14 10 9 11 12 10 9 10 11 9 11 9 13 15 13 12 9 6 7 6 6 6 6 9 11 8 7 6 6 6 5 5 5 4 4 4 5
6 5 10 8 5 9 10 4 8 11 11 11 6 6 7 7 9 10 11 10 10 11 10 13 13 15 16 12 10 10 8 7 7 7 7 10 12 11 9 7 7 7 5 5 5 5 5 4 4
5 10 7 8 2 3 8 9 9 14 13 8 7 7 8 8 9 7 9 9 9 9 11 12 11 13 14 10 9 8 8 8 8 8 9 11 11 13 9 8 8 8 6 5 6 5 5 5 5
7 4 7 6 8 6 7 9 11 11 13 11 11 13 11 10 11 7 7 7 8 8 9 10 11 10 9 9 10 9 11 10 9 9 13 13 12 13 13 9 9 9 9 10 9 7 6 6 5
10 9 9 9 10 4 8 15 14 14 16 17 18 16 13 11 12 9 8 8 7 8 8 8 9 10 11 10 9 9 8 8 8 8 10 13 14 16 14 13 11 12 9 10 10 11 7 5 6
11 12 9 8 8 9 10 17 18 18 21 23 22 17 13 12 9 8 8 9 8 9 10 9 9 9 11 14 8 7 6 4 7 10 11 13 16 17 17 17 13 13 12 11 12 12 13 9 7
10 7 11 8 5 4 5 8 7 13 12 9 11 13 15 16 15 11 7 5 4 4 2 4 7 8 9 12 13 14 12 12 13 11 10 12 16 17 17 17 17 15 12 14 14 12 11 9 10
5 7 3 0 5 7 5 7 7 12 9 10 10 10 8 8 7 2 1 1 1 4 4 4 5 5 6 8 12 12 13 11 10 9 13 15 15 18 18 18 19 18 13 16 16 15 15 12 10
1 5 5 3 2 6 11 9 5 7 9 8 6 4 6 4 2 3 2 2 2 5 3 4 6 8 7 7 9 13 15 15 12 13 11 11 12 13 19 20 19 18 17 17 16 16 18 16 14
6 7 1 2 2 10 5 11 10 12 8 4 8 6 7 6 4 1 4 4 2 2 4 6 7 8 8 8 8 9 14 16 17 16 13 13 11 12 16 21 19 17 20 19 17 18 18 18 16
16 13 6 8 5 4 6 9 7 8 4 2 7 7 7 1 3 2 3 4 5 7 7 7 9 8 8 8 9 8 9 11 13 16 14 12 12 13 16 18 20 22 22 21 19 16 16 17 17
11 18 7 5 1 2 6 5 6 6 4 6 7 7 6 2 5 3 5 6 7 8 8 8 8 8 8 8 8 9 11 12 13 17 16 14 16 13 16 18 20 21 22 22 21 17 19 18 18
6 7 7 6 4 6 6 7 8 1 8 8 7 6 5 2 3 4 5 6 7 8 8 8 9 9 9 8 7 10 10 10 12 13 15 17 17 17 18 18 20 22 22 23 22 19 19 20 16
10 10 7 7 8 4 2 6 2 7 8 10 5 2 3 3 2 4 7 7 7 7 8 8 8 9 9 9 11 11 9 8 9 12 14 16 18 19 20 20 20 21 23 22 22 22 21 22 21
16 15 14 6 5 7 7 11 5 10 7 7 5 3 5 7 8 6 5 6 7 8 8 8 9 8 9 9 11 11 9 9 12 14 15 16 18 19 21 21 22 21 23 23 24 24 22 24 24
Wind_Direction
308 310 306 305 292 192 115 94 121 119 110 67 65 25 51 46 14 96 127 98 120 117 122 121 119 120 116 113 111 106 108 108 104 108 106 102 93 89 102 91 86 94 88 85 83 84 83 81 80
302 294 291 269 244 138 90 138 95 76 83 74 99 230 186 94 82 129 103 132 136 121 134 126 122 124 121 119 114 111 110 109 111 110 109 96 99 88 101 95 82 96 93 89 85 85 85 85 86
295 291 275 290 285 31 108 97 104 102 125 170 140 10 10 89 119 151 120 141 136 126 121 125 129 131 131 127 122 120 121 113 113 113 113 108 104 93 110 104 101 101 98 91 87 87 87 88 90
317 298 248 268 322 62 95 93 114 120 107 330 5 99 81 21 120 116 148 137 139 115 118 132 138 141 139 137 132 128 124 118 112 117 120 117 115 95 107 111 92 83 90 96 95 93 93 93 93
297 250 278 257 55 91 62 71 139 165 160 159 212 139 94 84 97 121 151 137 134 122 128 134 139 141 141 142 137 136 132 126 120 122 123 125 124 107 108 116 108 102 102 102 102 102 99 95 91
301 218 279 251 124 96 89 107 179 152 131 88 169 148 90 121 122 141 147 145 143 129 136 135 140 139 140 147 145 142 141 132 124 119 122 130 135 112 70 103 113 111 108 112 111 111 109 102 89
264 298 279 310 352 116 119 142 213 174 152 164 25 57 117 150 138 146 156 142 153 135 144 143 151 146 142 144 148 150 155 153 142 131 130 140 143 151 73 94 113 109 113 120 117 117 119 115 103
314 291 280 274 277 174 104 148 347 310 93 92 22 13 160 147 129 149 157 143 149 141 148 151 155 154 155 152 154 160 166 164 151 139 137 127 143 158 112 111 118 125 135 133 130 129 126 121 117
296 271 255 263 233 292 131 163 269 11 55 75 91 59 98 119 147 153 156 147 155 154 179 156 152 167 167 158 164 159 161 160 147 139 142 148 153 168 172 168 144 145 132 149 147 144 137 130 127
225 226 252 35 1 19 123 234 149 193 186 181 121 100 117 134 161 163 180 167 179 170 186 171 164 160 174 169 156 164 165 164 167 153 152 183 175 177 173 151 161 137 153 167 158 154 159 164 167
211 239 281 346 27 8 328 46 27 274 277 337 186 152 151 156 178 181 191 181 185 182 189 186 166 166 187 189 161 172 169 174 167 168 167 214 151 142 138 136 151 139 166 167 149 162 197 202 201
261 267 275 299 61 344 309 339 336 230 274 90 52 131 157 175 183 196 193 203 176 178 215 196 188 176 177 196 165 177 172 187 172 181 178 206 150 153 167 155 190 175 183 192 184 186 213 223 208
244 275 298 252 120 290 311 284 277 289 296 299 138 124 175 181 196 196 199 198 196 179 186 204 191 186 182 187 179 182 184 184 179 172 186 192 182 171 188 171 180 189 182 198 191 193 202 180 200
20 323 274 250 217 241 261 267 280 226 243 252 266 188 198 201 198 195 195 196 203 188 182 187 192 188 184 190 193 198 185 183 183 176 180 184 181 173 187 178 183 188 187 210 190 200 183 195 194
318 298 289 264 261 215 302 262 232 251 272 281 274 253 225 221 216 203 192 197 194 200 181 185 188 186 185 193 205 193 193 193 193 190 178 186 185 183 177 183 185 193 184 198 199 208 192 193 198
243 239 286 214 208 217 187 263 264 252 226 242 243 253 238 213 212 205 204 192 197 188 190 183 188 191 193 196 195 202 199 194 192 196 190 187 196 186 179 178 189 190 190 186 186 190 196 201 196
211 238 218 267 220 193 182 246 275 276 253 268 275 261 243 254 242 203 199 199 195 192 187 195 192 192 194 197 197 202 201 197 201 196 198 197 196 201 188 185 191 186 191 188 188 197 173 194 215
206 218 247 267 196 217 263 258 260 290 297 293 283 285 287 272 261 238 203 204 192 190 194 198 198 195 193 198 202 202 205 204 202 203 200 198 198 200 200 197 191 190 188 188 190 189 200 184 192
314 323 314 294 252 198 238 266 268 276 283 265 243 241 239 248 253 257 254 228 205 200 194 197 197 194 187 198 204 209 212 206 210 208 205 199 197 199 202 201 200 195 198 200 197 195 185 210 189
260 270 262 276 289 307 278 269 260 254 257 265 256 251 241 245 255 256 240 239 219 212 207 201 197 187 194 199 208 211 216 219 215 216 213 205 199 199 201 203 202 200 196 201 202 200 197 190 190
229 236 249 256 302 307 301 288 257 255 243 244 255 258 257 251 253 255 251 238 226 215 206 201 200 197 195 203 199 208 212 216 214 214 213 211 206 203 200 202 202 202 199 201 201 201 199 199 198
242 211 250 276 314 248 117 284 299 302 287 246 239 232 241 242 243 241 247 282 291 284 302 262 220 204 200 194 201 205 212 216 224 222 216 215 213 211 206 204 204 205 203 203 202 200 200 188 202
223 311 346 232 290 304 262 276 249 228 247 246 232 220 217 223 219 209 309 356 337 346 311 286 301 262 238 209 206 208 217 225 229 227 222 214 213 213 208 206 207 208 206 210 203 200 199 205 197
83 123 66 7 281 266 209 211 221 209 217 214 227 251 182 143 142 143 56 350 294 265 241 270 264 264 256 240 218 215 219 224 227 230 226 223 218 215 214 209 208 210 211 209 207 202 203 202 207
186 150 142 330 208 234 200 207 242 288 300 69 129 115 88 79 105 351 350 312 330 1 268 254 249 248 245 245 252 235 231 232 233 234 235 230 222 219 218 214 210 209 212 213 209 206 204 205 203
203 183 169 201 203 275 213 236 254 206 207 143 155 125 94 228 240 191 37 16 326 302 284 266 250 250 247 242 239 238 234 234 236 238 240 238 234 226 222 220 221 216 212 212 209 209 209 206 208
187 220 227 347 154 16 239 254 271 190 178 106 110 126 203 174 92 32 318 298 291 285 286 296 287 266 257 248 244 245 246 244 241 236 236 239 242 237 226 220 219 221 218 216 212 211 208 207 206
184 150 186 215 215 246 245 244 235 262 163 177 192 191 119 91 358 316 303 287 283 279 271 274 272 264 259 255 254 266 258 244 243 245 242 238 239 238 235 225 218 219 219 216 215 215 213 209 206
197 219 226 178 212 205 276 246 214 181 168 129 110 116 157 205 246 260 264 265 278 293 299 285 277 267 257 251 254 253 245 246 253 251 248 244 242 237 237 234 227 219 218 216 217 217 214 214 210
220 223 208 194 202 239 276 237 65 112 68 97 105 82 324 312 294 284 326 311 288 277 282 286 286 281 272 263 256 243 243 248 258 259 257 252 248 241 237 236 234 225 217 216 216 216 213 215 215